ICE31R BIAR-BIRK

Flight info

Callsign ICE31R
Flight time 0h 41m
Altitude 20000
Route EXINU
Aircraft DH8D/M-SDE2E3FGRY/H

Departure

Time 2026-04-27 20:18
Airport Akureyri International Airport (BIAR)

Arrival

Time 2026-04-27 21:00
Airport Reykjavík Domestic Airport (BIRK)
Time Latitude Longitude Altitude Speed Heading
2026-04-27 20:01 65.65495 -18.07483 9 ft 0 kts 114°
2026-04-27 20:13 65.65492 -18.07465 9 ft 2 kts 116°
2026-04-27 20:13 65.65485 -18.07425 9 ft 2 kts 111°
2026-04-27 20:13 65.65479 -18.07383 9 ft 2 kts 103°
2026-04-27 20:13 65.65479 -18.07260 9 ft 10 kts 82°
2026-04-27 20:14 65.65550 -18.07174 9 ft 15 kts 356°
2026-04-27 20:14 65.65673 -18.07201 8 ft 19 kts 356°
2026-04-27 20:14 65.65817 -18.07229 8 ft 21 kts 355°
2026-04-27 20:14 65.65971 -18.07259 8 ft 23 kts 355°
2026-04-27 20:15 65.66136 -18.07288 8 ft 24 kts 355°
2026-04-27 20:15 65.66307 -18.07319 8 ft 25 kts 355°
2026-04-27 20:15 65.66479 -18.07354 8 ft 24 kts 354°
2026-04-27 20:15 65.66654 -18.07387 8 ft 25 kts 356°
2026-04-27 20:16 65.66794 -18.07401 7 ft 8 kts 16°
2026-04-27 20:16 65.66854 -18.07389 6 ft 8 kts 294°
2026-04-27 20:16 65.66847 -18.07419 6 ft 1 kts 185°
2026-04-27 20:16 65.66840 -18.07419 6 ft 0 kts 179°
2026-04-27 20:18 65.66653 -18.07386 8 ft 67 kts 176°
2026-04-27 20:18 65.65931 -18.07249 20 ft 132 kts 177°
2026-04-27 20:18 65.64983 -18.07146 551 ft 145 kts 183°
2026-04-27 20:18 65.63942 -18.07249 1231 ft 156 kts 180°
2026-04-27 20:19 65.62849 -18.07084 1741 ft 172 kts 178°
2026-04-27 20:19 65.61591 -18.07154 2207 ft 184 kts 181°
2026-04-27 20:19 65.60365 -18.07187 2973 ft 181 kts 182°
2026-04-27 20:19 65.59106 -18.07177 3717 ft 179 kts 182°
2026-04-27 20:20 65.57916 -18.07072 4544 ft 174 kts 181°
2026-04-27 20:20 65.56718 -18.06958 5206 ft 173 kts 190°
2026-04-27 20:20 65.55710 -18.08351 5753 ft 178 kts 225°
2026-04-27 20:20 65.54929 -18.10857 5971 ft 200 kts 230°
2026-04-27 20:21 65.54107 -18.13690 6307 ft 212 kts 230°
2026-04-27 20:21 65.53270 -18.16625 6794 ft 215 kts 231°
2026-04-27 20:21 65.52439 -18.19538 7425 ft 212 kts 231°
2026-04-27 20:21 65.51595 -18.22483 7918 ft 215 kts 231°
2026-04-27 20:22 65.50773 -18.25351 8485 ft 215 kts 231°
2026-04-27 20:22 65.49927 -18.28289 9068 ft 214 kts 231°
2026-04-27 20:22 65.49068 -18.31261 9545 ft 217 kts 231°
2026-04-27 20:22 65.48199 -18.34268 10048 ft 219 kts 232°
2026-04-27 20:23 65.47315 -18.37313 10377 ft 228 kts 231°
2026-04-27 20:23 65.46411 -18.40422 10940 ft 227 kts 232°
2026-04-27 20:23 65.45512 -18.43524 11387 ft 231 kts 233°
2026-04-27 20:23 65.44613 -18.46614 11972 ft 229 kts 232°
2026-04-27 20:24 65.43679 -18.49818 12434 ft 232 kts 232°
2026-04-27 20:24 65.42744 -18.53022 12753 ft 240 kts 232°
2026-04-27 20:24 65.41797 -18.56262 13264 ft 240 kts 233°
2026-04-27 20:24 65.40848 -18.59504 13820 ft 237 kts 233°
2026-04-27 20:25 65.39880 -18.62802 14054 ft 246 kts 234°
2026-04-27 20:25 65.38914 -18.66091 14562 ft 245 kts 233°
2026-04-27 20:25 65.37940 -18.69405 15045 ft 243 kts 232°
2026-04-27 20:25 65.36968 -18.72706 15463 ft 244 kts 232°
2026-04-27 20:26 65.35975 -18.76072 15733 ft 250 kts 233°
2026-04-27 20:26 65.34978 -18.79444 16179 ft 249 kts 233°
2026-04-27 20:26 65.33982 -18.82814 16523 ft 251 kts 233°
2026-04-27 20:26 65.32975 -18.86211 16915 ft 250 kts 233°
2026-04-27 20:27 65.31967 -18.89604 17335 ft 248 kts 233°
2026-04-27 20:27 65.30955 -18.93012 17466 ft 257 kts 233°
2026-04-27 20:27 65.29939 -18.96424 17965 ft 251 kts 234°
2026-04-27 20:27 65.28919 -18.99846 18225 ft 253 kts 233°
2026-04-27 20:28 65.27889 -19.03292 18472 ft 256 kts 233°
2026-04-27 20:28 65.26853 -19.06755 18824 ft 255 kts 233°
2026-04-27 20:28 65.25817 -19.10207 19046 ft 257 kts 233°
2026-04-27 20:28 65.25124 -19.12523 19233 ft 258 kts 233°
2026-04-27 20:29 65.23738 -19.17135 19632 ft 257 kts 232°
2026-04-27 20:29 65.22681 -19.20647 19736 ft 263 kts 233°
2026-04-27 20:29 65.21609 -19.24198 19757 ft 270 kts 233°
2026-04-27 20:29 65.20506 -19.27847 19750 ft 275 kts 233°
2026-04-27 20:30 65.19381 -19.31564 19742 ft 279 kts 233°
2026-04-27 20:30 65.18239 -19.35334 19736 ft 283 kts 232°
2026-04-27 20:30 65.17096 -19.39099 19732 ft 285 kts 232°
2026-04-27 20:30 65.15930 -19.42934 19735 ft 286 kts 233°
2026-04-27 20:31 65.14754 -19.46797 19743 ft 288 kts 233°
2026-04-27 20:31 65.13577 -19.50659 19736 ft 290 kts 232°
2026-04-27 20:31 65.12402 -19.54503 19738 ft 291 kts 232°
2026-04-27 20:31 65.11205 -19.58415 19730 ft 291 kts 232°
2026-04-27 20:32 65.10030 -19.62250 19720 ft 291 kts 232°
2026-04-27 20:32 65.08825 -19.66170 19723 ft 292 kts 231°
2026-04-27 20:32 65.07638 -19.70033 19726 ft 292 kts 231°
2026-04-27 20:32 65.06436 -19.73930 19730 ft 292 kts 232°
2026-04-27 20:33 65.05242 -19.77797 19731 ft 293 kts 231°
2026-04-27 20:33 65.04044 -19.81675 19733 ft 292 kts 231°
2026-04-27 20:33 65.02849 -19.85529 19727 ft 290 kts 231°
2026-04-27 20:33 65.01653 -19.89381 19725 ft 289 kts 231°
2026-04-27 20:34 65.00468 -19.93194 19739 ft 287 kts 231°
2026-04-27 20:34 64.99283 -19.97000 19736 ft 286 kts 231°
2026-04-27 20:34 64.98120 -20.00728 19728 ft 286 kts 230°
2026-04-27 20:34 64.96938 -20.04513 19728 ft 285 kts 230°
2026-04-27 20:35 64.95766 -20.08255 19725 ft 285 kts 231°
2026-04-27 20:35 64.94595 -20.11989 19729 ft 284 kts 231°
2026-04-27 20:35 64.93409 -20.15768 19730 ft 284 kts 230°
2026-04-27 20:35 64.92242 -20.19474 19727 ft 284 kts 230°
2026-04-27 20:36 64.91072 -20.23189 19727 ft 283 kts 231°
2026-04-27 20:36 64.89906 -20.26882 19733 ft 283 kts 230°
2026-04-27 20:36 64.88734 -20.30589 19733 ft 283 kts 230°
2026-04-27 20:36 64.87560 -20.34296 19738 ft 283 kts 230°
2026-04-27 20:37 64.86377 -20.38027 19745 ft 283 kts 230°
2026-04-27 20:37 64.85200 -20.41731 19741 ft 283 kts 230°
2026-04-27 20:37 64.84021 -20.45437 19736 ft 283 kts 231°
2026-04-27 20:37 64.82858 -20.49088 19733 ft 282 kts 230°
2026-04-27 20:38 64.81678 -20.52782 19740 ft 282 kts 230°
2026-04-27 20:38 64.80492 -20.56489 19740 ft 282 kts 230°
2026-04-27 20:38 64.79323 -20.60140 19739 ft 282 kts 230°
2026-04-27 20:38 64.78156 -20.63773 19724 ft 282 kts 230°
2026-04-27 20:39 64.76977 -20.67444 19731 ft 281 kts 229°
2026-04-27 20:39 64.75802 -20.71094 19742 ft 281 kts 229°
2026-04-27 20:39 64.74618 -20.74765 19746 ft 280 kts 229°
2026-04-27 20:39 64.73451 -20.78379 19739 ft 281 kts 229°
2026-04-27 20:40 64.72279 -20.82004 19736 ft 281 kts 228°
2026-04-27 20:40 64.71091 -20.85667 19743 ft 281 kts 229°
2026-04-27 20:40 64.69921 -20.89272 19741 ft 281 kts 228°
2026-04-27 20:40 64.68733 -20.92927 19734 ft 281 kts 228°
2026-04-27 20:41 64.67555 -20.96544 19746 ft 281 kts 228°
2026-04-27 20:41 64.66383 -21.00139 19667 ft 274 kts 229°
2026-04-27 20:41 64.65241 -21.03628 18864 ft 272 kts 228°
2026-04-27 20:41 64.64105 -21.07080 18030 ft 270 kts 227°
2026-04-27 20:42 64.62985 -21.10483 17390 ft 262 kts 228°
2026-04-27 20:42 64.61906 -21.13769 16866 ft 252 kts 227°
2026-04-27 20:42 64.60870 -21.16915 16407 ft 241 kts 227°
2026-04-27 20:42 64.59875 -21.19935 15970 ft 230 kts 228°
2026-04-27 20:43 64.58929 -21.22808 15581 ft 220 kts 227°
2026-04-27 20:43 64.58016 -21.25570 15198 ft 211 kts 227°
2026-04-27 20:43 64.57153 -21.28179 14821 ft 202 kts 226°
2026-04-27 20:43 64.56310 -21.30726 14467 ft 194 kts 226°
2026-04-27 20:44 64.55511 -21.33135 14129 ft 184 kts 227°
2026-04-27 20:44 64.54750 -21.35426 13795 ft 175 kts 226°
2026-04-27 20:44 64.54031 -21.37596 13492 ft 164 kts 226°
2026-04-27 20:44 64.53341 -21.39667 13244 ft 171 kts 226°
2026-04-27 20:45 64.52538 -21.42061 12931 ft 206 kts 226°
2026-04-27 20:45 64.51605 -21.44839 12539 ft 229 kts 226°
2026-04-27 20:45 64.50607 -21.47836 12095 ft 238 kts 227°
2026-04-27 20:45 64.49587 -21.50900 11651 ft 247 kts 227°
2026-04-27 20:46 64.48521 -21.54098 11209 ft 257 kts 227°
2026-04-27 20:46 64.47411 -21.57425 10727 ft 265 kts 227°
2026-04-27 20:46 64.46296 -21.60765 10225 ft 258 kts 227°
2026-04-27 20:46 64.45230 -21.63949 9770 ft 245 kts 226°
2026-04-27 20:47 64.44212 -21.66992 9355 ft 232 kts 225°
2026-04-27 20:47 64.43252 -21.69850 8951 ft 221 kts 225°
2026-04-27 20:47 64.42332 -21.72592 8574 ft 211 kts 224°
2026-04-27 20:47 64.41455 -21.75190 8206 ft 202 kts 224°
2026-04-27 20:48 64.40610 -21.77690 7856 ft 194 kts 224°
2026-04-27 20:48 64.40051 -21.79336 7636 ft 200 kts 223°
2026-04-27 20:48 64.38849 -21.82860 7150 ft 220 kts 224°
2026-04-27 20:48 64.37917 -21.85605 6745 ft 214 kts 223°
2026-04-27 20:49 64.37019 -21.88255 6362 ft 206 kts 223°
2026-04-27 20:49 64.36156 -21.90804 6005 ft 198 kts 223°
2026-04-27 20:49 64.35331 -21.93239 5712 ft 187 kts 222°
2026-04-27 20:49 64.34570 -21.95532 5475 ft 176 kts 224°
2026-04-27 20:50 64.33888 -21.97745 5174 ft 169 kts 226°
2026-04-27 20:50 64.33591 -22.00422 4864 ft 190 kts 262°
2026-04-27 20:50 64.34014 -22.03378 4703 ft 193 kts 279°
2026-04-27 20:50 64.34547 -22.06184 4568 ft 193 kts 279°
2026-04-27 20:51 64.35156 -22.09054 4446 ft 208 kts 294°
2026-04-27 20:51 64.36349 -22.11178 4319 ft 232 kts 333°
2026-04-27 20:51 64.37957 -22.11592 4195 ft 238 kts 12°
2026-04-27 20:51 64.39436 -22.10047 4075 ft 228 kts 50°
2026-04-27 20:52 64.40303 -22.07214 3960 ft 211 kts 80°
2026-04-27 20:52 64.40466 -22.04118 3839 ft 184 kts 117°
2026-04-27 20:52 64.39874 -22.01840 3841 ft 157 kts 147°
2026-04-27 20:52 64.39050 -22.00217 3930 ft 156 kts 149°
2026-04-27 20:53 64.38182 -21.98674 3946 ft 158 kts 159°
2026-04-27 20:53 64.37131 -21.97990 3960 ft 161 kts 175°
2026-04-27 20:53 64.35985 -21.97900 3970 ft 167 kts 180°
2026-04-27 20:53 64.34824 -21.97865 3969 ft 168 kts 179°
2026-04-27 20:54 64.32608 -21.97540 3949 ft 149 kts 177°
2026-04-27 20:54 64.31607 -21.97350 3956 ft 141 kts 177°
2026-04-27 20:54 64.30646 -21.97166 3952 ft 138 kts 178°
2026-04-27 20:55 64.29682 -21.96980 3815 ft 142 kts 177°
2026-04-27 20:55 64.28719 -21.96798 3561 ft 136 kts 176°
2026-04-27 20:55 64.27806 -21.96612 3392 ft 125 kts 178°
2026-04-27 20:55 64.26965 -21.96451 3210 ft 120 kts 178°
2026-04-27 20:56 64.26138 -21.96337 2962 ft 119 kts 179°
2026-04-27 20:56 64.25318 -21.96290 2743 ft 116 kts 178°
2026-04-27 20:56 64.24538 -21.96116 2572 ft 113 kts 174°
2026-04-27 20:56 64.23769 -21.95893 2395 ft 109 kts 173°
2026-04-27 20:57 64.23021 -21.95677 2240 ft 107 kts 172°
2026-04-27 20:57 64.22302 -21.95446 1986 ft 103 kts 169°
2026-04-27 20:57 64.21619 -21.95285 1704 ft 101 kts 176°
2026-04-27 20:57 64.20933 -21.95461 1625 ft 98 kts 181°
2026-04-27 20:58 64.20246 -21.95589 1542 ft 100 kts 174°
2026-04-27 20:58 64.19572 -21.95440 1519 ft 98 kts 169°
2026-04-27 20:58 64.18851 -21.95166 1321 ft 109 kts 163°
2026-04-27 20:58 64.18114 -21.94773 1234 ft 104 kts 166°
2026-04-27 20:59 64.17396 -21.94594 951 ft 109 kts 174°
2026-04-27 20:59 64.16618 -21.94504 842 ft 112 kts 172°
2026-04-27 20:59 64.15808 -21.94334 605 ft 121 kts 169°
2026-04-27 20:59 64.14968 -21.94168 379 ft 122 kts 171°
2026-04-27 21:00 64.14120 -21.94004 199 ft 121 kts 169°
2026-04-27 21:00 64.13303 -21.93840 46 ft 108 kts 173°
2026-04-27 21:00 64.12749 -21.93727 39 ft 39 kts 174°
2026-04-27 21:00 64.12592 -21.93696 37 ft 15 kts 176°
2026-04-27 21:01 64.12510 -21.93678 35 ft 8 kts 172°
2026-04-27 21:01 64.12461 -21.93667 35 ft 6 kts 169°
2026-04-27 21:01 64.12447 -21.93639 35 ft 2 kts 123°
2026-04-27 21:01 64.12444 -21.93510 35 ft 8 kts 85°
2026-04-27 21:02 64.12472 -21.93433 35 ft 8 kts 11°
2026-04-27 21:02 64.12545 -21.93436 36 ft 12 kts 356°
2026-04-27 21:02 64.12645 -21.93459 38 ft 15 kts 356°
2026-04-27 21:02 64.12758 -21.93480 39 ft 17 kts 355°
2026-04-27 21:03 64.12883 -21.93504 39 ft 18 kts 351°
2026-04-27 21:03 64.13005 -21.93563 40 ft 18 kts
2026-04-27 21:03 64.13100 -21.93643 40 ft 16 kts 308°
2026-04-27 21:03 64.13149 -21.93896 40 ft 18 kts 271°
2026-04-27 21:04 64.13135 -21.94198 39 ft 19 kts 263°
2026-04-27 21:04 64.13123 -21.94475 37 ft 11 kts 268°
2026-04-27 21:04 64.13165 -21.94531 37 ft 5 kts 327°
2026-04-27 21:04 64.13159 -21.94546 37 ft 0 kts 121°
2026-04-27 21:05 64.13159 -21.94543 37 ft 1 kts 104°
2026-04-27 21:05 64.13159 -21.94533 37 ft 0 kts 88°